070  
NZUS93 KARX 280159  
HRRWXR  
 
CURRENT HOURLY OBSERVATIONS ACROSS  
MUCH OF THE UPPER MISSISSIPPI VALLEY  
NATIONAL WEATHER SERVICE LA CROSSE WI  
900 PM CDT SAT AUG 27 2016  
 
   
..SOUTHEAST MINNESOTA
 
 
 
CITY SKY/WX TMP DP RH WIND PRES REMARKS  
ROCHESTER CLOUDY 67 65 93 CALM 30.06R  
ROCHESTER/MAYO CLOUDY 68 66 91 CALM 30.06R  
WINONA CLOUDY 70 66 88 CALM 30.04R  
AUSTIN CLOUDY 66 64 94 CALM 30.05R  
ALBERT LEA CLEAR 66 64 94 CALM 30.05R  
DODGE CENTER PTCLDY 64 61 88 CALM 30.06R FOG  
PRESTON CLOUDY 67 64 90 CALM 30.07R  
OWATONNA MOCLDY 66 63 88 CALM 30.04R  
FARIBAULT MOCLDY 63 63 100 CALM 30.05R  

 
   
..ELSEWHERE IN MINNESOTA
 
 
 
CITY SKY/WX TMP DP RH WIND PRES REMARKS  
MINNEAPOLIS PTCLDY 67 61 81 CALM 30.03R  
INTNL FALLS MOCLDY 53 52 96 CALM 30.01R  
DULUTH CLOUDY 61 60 97 N6 30.06R  
RED WING CLOUDY 66 66 100 CALM 30.03R FOG  
REDWOOD FALLS CLEAR 67 61 81 SE3 30.01R  
MANKATO CLEAR 66 63 88 CALM 30.03R  
WORTHINGTON CLEAR 65 62 90 S6 30.04R  
FAIRMONT CLEAR 64 63 96 E3 30.03R  

 
   
..SOUTHWEST WISCONSIN
 
 
 
CITY SKY/WX TMP DP RH WIND PRES REMARKS  
LA CROSSE CLOUDY 69 67 93 SE3 30.04R  
PRAIRIE DU CHI MOCLDY 68 66 93 SE3 30.04R  
BOSCOBEL FOG 66 65 96 CALM 30.06R VSB 1/2  
LONE ROCK NOT AVBL  
PLATTEVILLE PTCLDY 69 69 99 NE3 30.07R  
FORT MC COY CLOUDY 65 64 99 E3 30.05S  
CAMP DOUGLAS CLOUDY 65 65 99 E3 30.06R FOG  
MAUSTON-NEW LI CLOUDY 65 65 99 CALM 30.05R FOG  
VIROQUA CLOUDY 66 66 100 SE3 30.07R  
WIS DELLS NOT AVBL  

 
   
..ELSEWHERE IN WISCONSIN
 
 
 
CITY SKY/WX TMP DP RH WIND PRES REMARKS  
MILWAUKEE CLOUDY 71 67 87 NE3 30.05R  
MADISON PTCLDY 68 67 96 CALM 30.06R  
GREEN BAY CLOUDY 65 65 100 CALM 30.05S  
EAU CLAIRE CLOUDY 66 65 96 SW3 30.04R  
BLACK RVR FLS CLOUDY 65 65 100 CALM 30.04S FOG  
MEDFORD RAIN 61 61 100 S3 30.07R  
WAUSAU CLOUDY 63 61 93 S7 30.06R  
WIS RAPIDS CLOUDY 64 64 100 CALM 30.09R  
MARSHFIELD CLOUDY 64 62 93 S3 30.07R FOG  
RICE LAKE CLOUDY 63 61 94 CALM 30.05S FOG  

 
   
..NORTHEAST IOWA
 
 
 
CITY SKY/WX TMP DP RH WIND PRES REMARKS  
WATERLOO CLEAR 67 65 93 CALM 30.04R  
DUBUQUE CLEAR 69 66 90 E5 30.07R  
DECORAH PTCLDY 66 66 100 S3 30.05R  
MASON CITY PTCLDY 67 65 93 SE6 30.06R  
CHARLES CITY PTCLDY 66 66 100 S5 30.06R  
OELWEIN CLEAR 68 66 94 CALM 30.07R  

 
   
..ELSEWHERE IN IOWA
 
 
 
CITY SKY/WX TMP DP RH WIND PRES REMARKS  
DES MOINES MOCLDY 75 69 81 SE5 30.03R  
IOWA CITY PTCLDY 77 70 79 N3 30.06R  
FORT DODGE CLEAR 70 64 83 CALM 30.05R  
MARSHALLTOWN CLEAR 68 67 96 E3 30.04R  
CEDAR RAPIDS PTCLDY 73 70 90 N6 30.04R  

 
   
..NORTHERN ILLINOIS
 
 
 
CITY SKY/WX TMP DP RH WIND PRES REMARKS  
CHICAGO-OHARE CLOUDY 77 70 79 W5 30.06R  
CHICAGO-MIDWAY MOCLDY 81 71 71 SW6 30.06R  
MOLINE PTCLDY 76 72 87 E3 30.04R  
ROCKFORD PTCLDY 75 69 81 S5 30.07R  
PEORIA CLOUDY 76 76 100 CALM 30.07R  

 
 
NOTE: "FAIR" INDICATES FEW OR NO CLOUDS BELOW 12,000 FEET WITH NO  
SIGNIFICANT WEATHER AND/OR OBSTRUCTIONS TO VISIBILITY. WIND  
SPEEDS ARE IN MILES-PER-HOUR.  
 
 
CLICK HERE TO GO TO PREVIOUS BULLETINS.

The Nexlab WI Page
The Nexlab IA Page
The Nexlab MN Page Main Text Page